Theta_e
306 306 307 306 303 302 303 304 305 304 304 304 304 304 304 305 305 306 306 306 306 305 306 306 304 304 307 310 312 313 313 314 315 316 317 317 316 318 320 321 321 322 323 323 323 323 323 323 324 325 325 325 325 325 325 325 325 326 327 328 329 327 327 326 326 327 328 326 324 321 318 315 312 311 311 311 310 305 303 302 300 303 304 304 306 307 310 311
306 306 306 304 302 300 301 302 303 303 303 303 303 304 304 304 305 305 306 305 305 305 306 305 304 306 310 311 312 312 312 313 313 314 316 316 317 319 320 321 321 322 322 322 322 322 322 322 323 323 324 324 325 325 325 325 325 326 326 326 329 327 325 324 325 327 327 324 321 319 316 316 314 313 313 310 306 305 304 302 301 302 302 303 306 308 310 311
305 305 305 303 301 300 299 300 301 302 303 303 302 303 303 304 304 305 305 305 305 305 306 304 305 309 311 311 311 311 312 312 312 312 315 316 316 318 320 320 321 321 321 321 321 321 321 321 322 323 323 323 323 324 325 325 325 326 325 325 326 324 323 324 325 326 324 322 317 315 314 312 312 313 312 307 304 302 301 301 301 300 301 303 306 309 310 312
305 305 305 302 300 299 298 299 300 301 302 303 303 303 303 303 304 304 304 305 304 305 305 304 306 311 310 310 311 311 312 312 312 311 314 314 314 317 319 319 320 320 320 320 321 320 320 319 320 321 322 322 323 324 324 325 325 324 325 325 324 323 324 324 325 325 322 320 316 314 313 309 309 311 309 308 308 303 297 297 298 298 300 303 306 309 310 312
306 306 304 301 299 298 299 300 300 300 301 303 303 303 303 303 304 304 304 304 304 304 305 304 307 309 309 311 311 311 312 313 312 310 313 313 312 316 318 318 319 320 319 319 319 319 319 318 319 320 321 322 322 323 324 324 324 323 323 323 322 323 324 324 325 324 321 319 317 314 312 309 307 306 305 309 309 301 296 297 299 299 301 304 306 308 309 311
306 305 303 300 298 297 299 300 300 300 300 302 303 304 303 304 304 304 304 303 303 304 306 305 306 308 309 311 311 311 313 312 310 309 311 311 310 313 315 317 318 319 318 317 317 317 317 317 317 319 319 320 321 321 322 323 323 323 323 321 322 323 323 323 324 322 320 318 315 312 310 307 305 300 300 302 298 295 295 297 300 300 302 304 305 307 309 309
306 304 302 300 298 297 298 299 300 300 300 302 304 304 302 302 303 303 303 302 302 304 306 306 306 308 309 310 311 311 311 309 308 309 311 311 309 311 314 316 317 317 316 315 316 315 316 316 317 318 318 318 318 319 321 321 322 322 322 321 322 323 322 322 321 319 318 315 311 310 309 307 305 302 299 296 292 294 297 298 300 300 303 304 305 307 308 308
305 303 301 299 297 296 298 299 300 300 300 302 301 301 300 299 300 300 300 302 304 305 305 306 307 308 308 310 312 311 308 308 309 309 311 310 308 310 313 315 316 314 314 314 314 314 315 315 315 316 317 317 316 317 320 320 321 322 322 321 321 322 321 319 317 316 314 311 310 310 306 304 303 302 297 293 292 295 297 298 299 300 302 304 306 306 305 305
303 301 301 298 296 296 298 299 300 299 300 301 300 300 300 299 298 298 299 301 304 305 305 306 306 307 309 312 314 311 308 308 309 309 309 309 308 310 312 314 314 313 314 314 314 314 315 314 314 315 316 317 316 317 319 319 320 320 321 321 321 321 319 317 315 314 311 310 311 307 302 301 303 303 298 293 293 295 296 297 298 299 301 303 305 303 301 303
302 301 301 298 296 297 298 300 300 299 300 300 300 300 301 300 299 299 299 301 304 305 305 305 306 307 309 311 313 311 308 307 309 309 308 307 307 309 311 312 313 313 313 313 314 314 314 314 314 316 316 316 316 317 318 318 319 319 320 320 320 321 319 317 314 313 312 311 312 307 303 304 306 307 301 294 294 295 296 297 297 298 299 302 302 301 301 303
301 301 300 297 296 297 298 300 300 299 299 300 300 301 301 301 300 300 300 301 303 304 305 305 306 307 308 309 310 309 307 307 308 308 306 305 306 307 309 312 312 313 313 312 314 314 314 314 314 315 315 315 316 316 317 317 319 319 320 319 320 320 319 318 315 314 313 311 312 308 306 306 306 304 299 295 294 294 295 295 296 297 298 299 298 299 301 302
301 301 299 296 296 298 299 300 299 299 299 300 301 301 302 301 301 300 301 302 303 304 305 306 307 308 308 308 307 307 307 307 307 307 305 304 304 304 307 312 312 312 313 312 313 314 314 314 313 314 314 315 314 315 316 316 317 318 319 319 319 319 319 318 316 315 314 311 312 311 312 310 303 299 296 295 294 294 295 294 295 296 296 296 296 298 299 299
301 300 297 295 297 299 300 299 299 299 299 301 302 302 301 300 300 299 300 302 304 305 305 306 307 309 309 307 306 307 307 306 306 306 305 305 305 303 305 311 312 312 312 313 312 313 314 313 313 314 314 315 314 314 315 315 316 317 317 318 319 319 319 319 317 317 315 312 312 315 319 312 300 297 295 294 295 294 294 293 293 294 294 295 295 296 296 298
300 299 295 295 297 299 300 299 299 299 299 302 303 302 301 300 299 299 301 303 304 305 305 306 307 307 307 306 306 307 306 305 305 305 305 307 307 306 306 308 311 312 312 313 312 312 314 313 313 314 314 314 314 314 313 315 315 315 317 317 318 318 318 318 318 318 316 314 313 316 321 310 299 297 295 294 295 294 292 292 292 292 292 292 292 293 293 295
299 296 295 296 298 299 299 299 298 298 299 302 304 304 302 300 300 301 303 304 304 304 304 306 308 307 306 305 306 306 306 305 306 305 305 307 308 309 309 309 310 311 312 312 312 312 313 312 312 313 313 313 314 315 314 315 315 314 316 316 317 316 315 317 318 318 317 315 313 317 318 308 299 297 296 295 295 295 293 292 292 291 291 291 291 291 291 293
296 294 295 297 298 299 299 298 298 298 299 302 304 304 302 300 301 302 303 303 303 302 304 306 308 308 307 306 305 305 305 305 305 304 305 307 308 308 309 310 310 311 312 312 312 313 312 312 312 312 312 313 314 315 315 315 315 315 315 315 316 315 314 317 318 318 317 315 315 317 315 306 300 298 296 296 296 296 293 291 291 291 290 290 290 290 289 290
294 294 296 297 298 299 298 298 298 298 300 301 302 302 302 301 302 303 303 302 302 302 304 306 306 307 306 305 305 305 304 304 304 304 304 306 308 308 309 310 311 311 312 312 312 312 312 312 312 312 312 313 314 315 315 314 315 315 315 315 315 314 315 318 318 317 317 316 317 317 311 304 301 299 297 297 297 297 294 291 291 290 289 289 289 289 288 290
294 294 296 298 299 298 298 298 298 299 301 301 302 302 303 302 302 302 302 302 302 302 304 304 305 308 307 304 305 304 303 304 303 303 305 306 307 309 310 310 310 311 311 311 311 312 311 311 312 312 312 313 314 314 315 314 314 315 314 314 315 314 315 317 317 317 316 316 317 316 308 301 299 298 297 297 296 296 294 292 291 289 289 289 288 288 288 290
294 295 296 298 299 298 298 299 300 301 302 302 302 302 302 302 302 302 302 302 303 304 305 305 305 308 307 304 304 303 303 304 303 304 305 306 307 309 309 310 310 310 311 311 311 311 311 311 311 312 313 312 313 313 314 313 312 313 313 313 314 314 315 316 318 317 316 317 317 315 308 301 298 298 296 295 295 296 294 291 290 289 289 288 288 288 288 289
294 295 296 298 299 299 299 300 301 301 302 302 302 303 303 304 304 302 301 303 303 304 304 305 304 305 304 303 303 304 304 304 304 304 305 306 307 308 309 310 310 310 310 311 311 310 311 312 311 311 312 312 311 312 312 311 311 312 313 314 314 313 315 315 317 316 316 317 314 311 306 300 298 297 296 294 294 294 293 291 290 289 288 288 287 287 288 289
294 295 296 299 299 300 301 301 302 301 302 302 303 305 305 306 306 303 301 302 301 302 303 303 303 303 302 303 303 304 305 305 304 303 304 306 307 308 309 310 310 310 310 310 310 309 310 312 311 310 310 310 310 311 311 312 312 311 311 313 314 314 314 312 314 315 314 316 311 306 304 301 298 297 295 294 293 293 292 291 290 289 288 287 287 286 288 289
294 295 297 299 300 301 301 301 301 301 301 301 303 305 304 303 304 303 303 302 301 302 302 302 302 302 301 302 302 304 305 305 304 303 303 305 306 307 308 310 311 310 310 310 309 309 309 311 309 306 308 309 310 310 311 312 311 311 311 310 311 313 313 311 312 312 313 316 311 306 307 304 298 296 295 293 293 293 292 292 291 290 288 287 286 286 287 289
294 295 296 299 300 301 300 300 300 300 300 301 302 302 301 302 302 303 304 303 301 301 301 302 302 301 301 301 301 303 304 303 303 303 302 305 306 307 308 309 310 310 310 310 309 309 310 308 305 304 306 308 309 310 310 310 310 311 310 309 309 311 313 312 310 310 312 313 309 307 309 306 298 295 294 292 293 293 291 291 290 289 288 287 286 286 287 287
294 294 296 298 300 300 299 298 299 300 300 300 301 301 301 302 302 304 305 304 302 300 300 300 300 300 300 300 301 302 302 301 301 302 302 304 305 305 307 308 309 309 308 309 310 310 308 304 302 304 306 307 308 309 309 309 309 310 310 309 309 311 312 312 310 310 310 310 308 308 310 308 300 297 295 293 292 291 289 289 288 288 288 287 287 286 286 286
294 294 295 297 299 300 299 299 299 299 300 300 301 301 301 302 302 303 304 305 304 301 301 301 300 299 299 300 301 302 302 300 300 301 301 302 304 305 306 306 307 308 308 309 309 308 305 301 301 304 306 306 308 308 309 309 308 309 310 309 309 311 311 311 310 309 309 309 310 309 311 311 303 299 298 294 291 290 288 287 287 286 287 286 286 286 285 284
294 294 294 296 299 299 300 301 299 298 300 300 301 301 301 301 301 300 302 306 306 302 302 302 300 299 298 300 300 301 303 301 299 300 301 301 303 304 305 305 306 307 308 307 306 306 303 301 302 304 305 306 307 307 308 309 308 308 308 307 310 311 310 310 310 309 309 310 310 309 310 311 306 302 299 293 290 290 288 287 287 286 286 285 285 285 284 283
294 294 294 296 298 298 301 302 300 299 301 300 300 301 300 300 299 299 302 307 306 303 302 301 300 299 298 299 299 301 303 302 300 300 300 301 301 302 304 306 305 305 305 305 305 304 302 302 303 303 305 306 307 306 305 306 308 308 306 307 310 310 309 309 309 308 308 309 310 309 309 310 309 305 297 292 291 291 290 288 288 287 286 285 285 284 284 283
294 294 294 295 297 298 301 302 300 300 301 300 300 300 299 300 299 300 305 306 303 301 301 300 299 298 297 298 299 299 300 300 301 301 299 300 301 302 304 305 304 304 303 303 304 301 299 302 302 302 305 305 303 302 300 303 307 306 304 306 308 309 309 308 308 308 307 308 309 309 309 310 311 304 294 292 294 293 292 290 289 288 286 285 285 284 283 283
293 294 294 294 296 297 298 299 298 299 300 299 300 300 299 299 299 301 305 303 300 299 299 299 298 298 298 299 299 298 298 298 300 300 299 300 301 302 304 304 303 303 302 302 303 300 297 299 298 299 303 302 299 298 299 302 305 304 304 305 306 307 309 308 308 307 307 308 307 308 309 309 310 304 295 295 296 295 295 293 290 289 287 286 285 284 283 282
293 293 293 293 295 295 296 296 297 299 298 298 300 299 298 299 301 304 304 301 300 300 299 299 298 298 299 300 299 298 298 298 297 299 300 301 301 301 302 302 302 302 301 301 301 298 296 296 297 297 298 297 296 297 299 300 301 302 304 305 305 305 306 306 307 307 307 307 307 308 309 308 309 307 300 298 299 298 297 296 293 290 288 286 285 284 283 282
293 293 293 293 294 294 295 295 296 298 297 298 300 298 299 301 303 305 302 299 300 300 298 298 297 297 298 300 299 297 297 297 296 298 301 301 302 302 301 302 303 302 302 302 301 297 296 297 298 296 294 295 297 298 299 299 300 302 304 304 305 306 306 305 306 307 306 307 307 307 309 309 309 308 304 300 299 300 300 298 294 291 288 286 285 284 282 281
293 293 293 293 293 294 295 295 296 297 297 299 299 298 302 303 303 303 300 298 301 300 298 297 296 296 297 298 298 296 296 297 295 297 299 301 302 302 301 302 303 303 304 305 302 300 299 298 297 296 294 295 298 300 301 301 301 302 304 305 305 306 307 306 306 306 306 306 305 304 307 309 308 308 304 300 298 297 298 298 295 291 288 286 285 283 282 282
293 293 293 293 293 294 294 295 295 295 297 299 299 300 303 303 302 303 300 298 299 298 296 295 294 295 296 298 297 294 295 297 295 296 297 299 302 302 300 300 301 303 305 304 303 303 302 299 297 298 297 295 297 300 301 302 302 302 304 306 306 306 306 307 307 306 307 306 302 302 306 307 308 305 300 296 294 292 293 296 296 292 288 286 284 283 282 281
293 293 293 293 293 293 293 295 295 295 298 299 299 301 300 300 301 301 299 298 297 295 295 294 294 295 297 298 296 294 296 297 294 295 298 299 301 302 301 299 299 300 302 303 304 304 305 303 299 298 297 295 296 296 297 298 300 301 303 304 306 305 306 307 307 307 308 306 302 302 305 307 308 301 293 290 290 290 292 294 293 291 288 286 284 282 282 281
293 293 293 293 293 293 293 294 294 296 298 299 300 302 299 299 300 300 300 298 295 295 295 294 294 297 298 297 295 293 295 296 294 295 298 299 301 301 301 299 297 299 301 304 304 303 306 305 297 293 293 293 294 294 293 296 300 303 303 304 305 304 304 306 306 305 305 305 303 303 305 305 301 293 289 289 289 289 291 291 289 288 286 285 283 282 282 281
293 293 293 293 293 293 293 294 294 296 299 299 302 303 301 300 299 299 299 297 296 295 294 295 296 298 299 297 295 293 293 295 294 295 298 299 299 299 299 296 294 296 299 302 304 303 305 303 294 292 293 291 291 292 292 295 300 303 303 303 302 300 302 304 305 303 303 304 304 304 304 302 299 294 290 289 289 289 290 289 288 286 285 284 283 282 282 281
293 293 293 293 293 293 293 294 295 297 299 300 303 302 300 298 296 297 297 295 296 295 295 297 298 298 300 299 297 295 293 294 295 296 298 299 299 299 297 293 291 292 292 296 302 301 302 301 294 292 294 291 290 291 292 292 295 300 302 300 299 301 302 303 304 304 304 305 305 304 304 303 303 299 291 288 290 289 289 289 287 285 284 283 282 282 282 281
293 292 293 292 292 293 293 294 296 298 299 300 303 302 299 296 294 295 295 294 296 296 295 298 298 297 298 300 298 294 293 295 296 295 297 298 297 296 295 293 289 288 288 291 298 300 299 301 296 292 293 292 290 292 295 294 293 296 298 296 299 303 303 303 303 304 305 305 304 304 304 303 303 302 296 292 291 289 288 288 287 285 284 284 283 282 282 281
292 292 293 293 292 292 293 295 297 298 300 300 302 302 297 294 293 292 292 293 295 296 296 297 298 296 296 298 298 295 293 295 296 296 297 298 297 293 292 292 289 287 287 289 295 298 298 301 299 293 292 293 293 294 298 298 294 294 295 296 299 300 301 303 303 303 305 304 304 304 304 304 302 300 298 296 292 290 289 288 287 285 284 284 284 283 282 281
292 293 295 293 291 292 294 296 298 300 301 299 301 300 294 292 293 290 290 292 293 294 296 297 298 297 295 295 295 295 294 294 295 296 296 296 296 292 289 289 289 288 287 289 292 296 297 301 300 294 291 294 296 295 296 297 296 296 297 298 299 299 300 301 300 301 303 303 304 304 303 304 300 294 293 295 294 291 289 288 287 286 285 285 284 283 283 282
291 295 296 293 291 292 294 298 299 299 300 299 298 297 293 292 292 290 290 291 291 291 293 294 295 296 295 294 294 294 294 294 294 296 297 294 295 294 288 284 286 287 289 291 292 294 297 299 299 296 294 296 295 289 287 288 290 293 296 298 299 299 300 300 300 301 301 301 303 303 302 303 297 291 290 293 293 292 290 288 288 287 286 286 285 284 283 282
292 296 297 292 291 292 295 299 297 296 298 298 295 293 293 292 291 290 290 290 290 290 290 291 293 294 294 294 294 294 294 294 293 294 295 294 293 292 286 281 282 285 289 292 292 291 293 296 297 297 296 293 289 285 284 285 286 288 291 293 295 297 299 300 300 301 301 300 301 300 301 302 294 289 289 289 289 291 291 289 289 288 287 286 285 284 283 283
293 295 295 291 291 293 297 299 297 296 296 291 288 289 290 290 290 289 289 290 290 290 290 291 291 292 292 292 293 294 294 294 295 293 293 293 290 284 281 281 282 284 288 292 293 291 292 295 296 297 295 290 286 284 284 284 286 289 290 290 291 295 297 298 298 298 298 299 300 299 300 301 293 287 288 288 287 289 291 290 289 288 287 286 286 285 284 283
293 294 293 291 291 294 297 299 298 298 295 288 287 288 287 288 288 288 289 290 290 290 290 290 289 289 290 289 291 293 293 294 295 292 291 292 287 281 279 281 282 284 288 290 291 290 292 296 297 297 296 293 291 290 289 288 287 290 291 290 290 293 294 294 295 295 296 298 299 299 300 300 293 287 287 288 287 288 290 290 289 288 287 287 286 285 284 283
294 294 292 290 292 294 295 296 296 298 296 291 290 290 288 287 286 286 288 289 287 288 289 289 287 287 287 287 289 290 289 291 293 291 289 289 285 280 280 281 281 284 286 286 286 287 291 294 295 295 296 296 295 295 294 292 290 289 290 290 289 290 292 294 295 296 296 297 298 298 299 298 293 288 287 288 287 288 289 289 289 288 287 287 286 285 284 283
294 295 293 291 292 293 293 292 292 295 295 292 291 291 290 290 286 284 286 287 286 286 287 286 285 286 286 286 289 290 288 288 289 289 289 288 284 280 279 280 281 282 285 285 284 285 289 291 292 293 295 294 293 291 287 287 290 291 290 289 288 288 289 292 294 295 296 297 297 297 298 298 296 293 291 289 288 288 288 288 288 288 287 287 287 286 284 283
294 296 295 292 292 292 292 291 291 293 293 292 293 292 291 290 287 285 285 286 285 285 286 285 285 287 289 288 289 290 288 286 286 287 288 287 284 280 278 279 280 282 284 285 284 285 289 291 289 290 291 289 288 286 282 283 289 291 289 289 289 287 288 290 292 294 295 295 296 296 297 298 298 297 296 292 289 288 288 287 288 288 288 287 287 285 284 283
294 296 295 293 294 293 293 293 292 292 292 292 293 292 291 290 289 288 286 283 283 285 287 286 285 287 289 289 290 290 287 286 287 287 288 287 284 282 281 280 280 282 284 284 283 284 287 290 288 287 288 287 283 282 281 282 285 286 286 287 288 287 288 288 289 291 293 294 295 295 297 297 296 296 296 293 289 288 288 287 287 288 288 287 286 285 284 284
293 295 293 292 294 294 292 293 292 292 292 293 292 291 291 291 290 289 285 283 284 284 286 289 288 287 287 288 290 291 288 288 290 289 287 286 284 285 286 284 282 282 284 283 282 282 285 289 288 285 287 288 283 280 279 281 283 284 284 285 285 286 287 288 288 289 290 291 293 293 294 294 293 293 293 291 289 288 288 288 287 287 287 287 286 285 285 285
292 294 292 291 292 290 289 292 292 292 292 292 292 291 290 291 290 288 285 286 289 286 284 288 290 287 286 287 290 292 289 288 291 291 287 287 286 285 287 288 284 282 283 284 282 282 285 289 287 284 286 287 283 278 278 280 281 282 283 283 283 284 285 285 286 287 288 288 289 290 290 291 292 292 291 290 290 289 288 288 287 287 287 287 286 286 285 285
292 294 293 293 292 288 288 291 291 292 292 292 293 292 290 291 290 288 285 285 288 288 284 286 289 287 285 287 288 289 287 285 286 286 285 286 287 286 286 287 285 283 283 283 283 283 284 286 286 285 287 287 282 278 279 280 280 281 282 282 282 283 284 285 285 286 287 288 288 288 289 289 291 292 290 289 289 288 287 287 287 287 287 287 286 286 285 285
292 293 293 294 295 291 289 290 291 292 292 292 292 291 290 290 288 288 289 285 281 283 284 285 287 287 285 286 286 286 285 283 283 283 283 283 284 284 284 284 284 283 283 283 283 283 283 285 286 286 288 287 281 277 279 280 283 285 286 285 284 283 283 284 285 286 286 287 288 288 289 289 290 291 291 289 288 287 287 288 288 287 287 286 286 286 286 285
Wind_Speed
10 11 13 15 15 13 11 9 8 6 6 7 6 6 4 2 2 2 3 5 5 5 3 3 10 19 24 25 23 20 17 15 9 3 5 9 8 4 10 10 8 10 11 8 8 7 6 6 5 6 7 8 6 6 7 4 4 3 1 2 2 1 1 1 1 4 8 9 10 12 16 17 9 11 16 14 18 22 22 20 19 18 18 18 16 15 14 12
11 12 14 15 15 14 12 10 9 7 7 6 6 6 4 3 2 2 3 4 4 4 2 7 16 24 25 24 22 18 16 13 7 3 5 6 4 8 12 10 9 11 9 5 4 5 5 6 5 5 6 6 4 5 6 3 3 3 2 2 1 1 1 2 4 8 12 13 14 14 16 17 10 9 8 6 11 15 17 15 15 18 18 18 18 17 16 15
13 14 15 15 15 14 12 11 10 8 8 7 6 6 4 3 2 2 3 3 3 4 3 12 22 25 23 22 20 18 16 12 7 5 3 3 3 7 11 10 10 10 9 6 2 4 3 3 3 5 6 5 3 5 6 3 2 2 2 1 1 3 4 5 10 14 18 21 18 14 16 17 11 7 8 11 12 10 10 8 9 14 14 15 17 17 17 16
14 16 17 15 14 12 11 10 10 9 8 7 6 6 5 4 1 1 3 3 3 3 8 16 23 24 22 21 19 17 15 10 5 3 2 2 2 6 9 8 8 8 8 4 2 2 2 1 1 5 5 4 3 3 4 4 2 1 1 1 3 6 4 8 16 19 20 23 19 14 16 16 12 12 12 14 10 7 6 5 7 9 12 14 16 17 16 15
15 17 18 16 13 11 11 10 10 9 8 7 7 6 5 4 2 2 2 3 2 7 13 19 24 24 22 20 17 13 8 4 2 1 3 1 2 7 9 8 7 6 6 4 3 4 1 1 2 4 3 4 5 2 3 4 1 0 1 1 5 7 5 9 17 19 19 21 19 14 12 11 13 15 11 8 6 4 4 6 10 11 13 15 16 17 16 16
16 17 17 16 13 12 12 10 9 10 9 8 7 6 5 3 2 2 1 2 2 9 13 20 24 23 22 18 13 8 6 3 2 2 4 1 0 4 9 10 8 7 5 5 2 2 0 1 3 4 5 4 5 4 5 6 1 0 1 0 6 9 7 9 15 18 19 19 14 11 12 14 15 14 12 14 12 7 8 9 11 12 14 16 16 17 17 17
15 16 16 15 13 13 12 10 9 10 10 8 7 5 5 4 2 1 2 2 5 10 15 21 24 24 21 16 12 11 10 5 2 2 4 2 2 1 8 10 9 8 5 4 1 1 0 2 4 5 6 4 5 5 6 6 2 2 2 3 7 11 10 11 17 19 20 20 16 17 16 12 12 10 11 16 12 8 10 11 13 14 15 16 16 17 17 17
15 16 15 13 12 12 12 10 9 9 9 9 8 6 7 7 5 4 5 7 8 11 16 21 23 23 18 13 10 9 10 6 2 3 2 2 2 2 6 8 9 7 4 1 1 1 1 4 6 6 5 3 4 5 7 5 1 2 2 8 8 10 14 17 20 21 23 22 22 23 16 12 15 15 13 12 9 10 11 12 13 14 15 15 16 17 17 17
15 16 14 12 11 12 11 10 8 8 8 9 8 7 8 8 7 6 6 7 8 11 17 21 23 22 15 10 6 5 6 4 4 2 0 1 1 6 8 5 7 5 3 1 2 3 4 6 5 2 3 3 2 3 7 4 2 4 6 10 9 10 14 17 18 18 21 21 23 21 14 15 19 15 11 7 8 11 12 13 13 13 14 15 15 16 17 17
15 15 12 11 11 11 10 9 7 7 7 8 7 6 7 7 7 6 6 5 6 12 19 22 23 18 10 6 3 2 4 3 4 2 2 2 2 6 7 6 8 4 2 3 2 4 5 4 3 1 2 4 2 5 7 3 1 6 11 10 10 12 12 14 15 15 18 16 20 19 11 13 10 4 4 5 9 12 12 13 12 12 13 14 14 14 16 16
15 14 11 10 10 10 9 8 6 6 6 7 7 6 6 6 5 5 6 5 6 15 22 23 19 13 10 7 4 3 4 4 3 3 3 3 3 4 6 11 11 5 2 4 2 5 2 3 3 1 1 3 0 6 7 4 4 7 12 9 10 11 10 13 13 15 15 10 18 23 13 7 4 3 6 10 10 10 12 12 11 12 12 12 13 13 15 15
14 12 10 9 10 10 8 6 5 5 5 7 7 7 6 5 6 5 7 7 11 20 24 20 14 12 11 8 9 7 5 6 5 4 5 5 5 5 9 13 10 5 4 3 3 7 2 1 5 2 2 3 2 5 4 3 2 4 8 6 8 8 7 12 13 14 12 8 19 22 10 3 4 5 10 13 11 9 10 10 10 10 11 11 11 12 13 14
13 11 10 10 9 8 7 5 4 4 5 7 7 7 7 6 6 5 8 13 18 23 22 17 12 11 9 7 10 7 6 9 6 6 8 8 6 5 10 12 8 6 7 4 5 9 6 4 6 2 2 3 2 4 1 4 4 4 5 3 6 5 5 11 13 13 9 12 22 14 2 2 4 7 11 12 12 10 8 7 7 8 9 10 10 10 11 12
10 9 9 9 9 8 7 5 4 5 6 7 7 7 7 7 8 8 13 19 23 22 18 15 12 11 10 7 8 7 8 9 6 6 9 10 8 4 6 7 7 8 7 6 7 10 8 7 4 3 2 2 3 4 2 3 4 4 4 3 4 3 5 11 14 12 6 12 23 10 2 3 4 7 10 11 12 10 8 7 6 6 7 8 9 8 9 10
9 9 9 9 8 7 7 6 5 5 6 8 7 7 8 9 12 15 19 22 22 20 16 14 11 10 10 8 7 6 8 8 6 7 8 11 10 5 4 4 5 8 5 5 9 10 9 7 3 3 1 3 7 7 2 3 2 3 4 3 4 3 4 10 15 14 7 9 18 9 1 3 5 9 10 11 11 8 7 7 7 7 7 7 7 7 7 8
8 8 8 8 8 7 7 6 5 5 7 8 8 9 12 15 17 19 20 19 19 17 14 11 9 8 8 6 5 6 7 6 6 6 6 9 10 7 6 5 5 6 5 5 9 10 8 4 2 3 3 3 5 4 2 3 2 4 4 3 4 5 4 6 12 16 13 10 10 7 1 3 5 12 13 11 11 9 7 7 7 7 7 7 7 7 7 8
8 8 8 7 7 7 6 6 6 6 7 10 12 14 18 19 18 18 17 15 14 12 12 10 7 7 7 6 5 5 7 6 5 6 6 7 10 10 7 5 6 7 7 8 8 7 4 2 3 3 2 3 3 3 3 3 4 4 4 3 5 7 5 5 8 13 14 10 6 4 1 3 7 14 15 12 12 10 8 8 8 7 7 7 7 7 7 8
8 8 7 7 7 7 7 6 7 9 12 16 19 20 19 18 17 16 15 13 11 9 9 8 4 4 6 6 5 5 5 6 5 6 7 7 10 12 8 5 6 8 9 7 6 5 2 2 3 1 2 3 3 4 4 2 2 4 6 4 4 6 7 7 7 10 13 9 7 5 2 6 9 11 13 13 13 12 9 9 9 8 8 7 7 7 8 9
8 7 7 7 7 7 7 9 11 15 19 21 22 20 18 17 15 13 12 11 10 7 4 6 6 4 5 6 6 6 7 7 5 5 8 7 8 9 8 6 6 8 7 5 3 2 3 2 1 1 2 4 4 6 3 1 3 2 5 6 6 5 4 4 4 9 13 8 7 7 5 8 10 10 12 13 14 14 11 10 10 10 10 10 9 9 9 10
7 6 6 7 8 8 11 14 16 19 22 21 18 13 10 9 7 7 11 14 14 10 6 7 8 9 8 7 7 7 8 8 6 5 7 8 8 7 6 6 4 5 3 2 3 1 1 1 2 3 2 3 6 8 3 3 5 5 3 3 7 5 1 2 3 7 10 6 4 5 6 8 9 9 11 13 14 14 13 13 12 12 13 13 13 12 12 12
6 6 6 7 8 11 13 15 17 19 18 14 10 4 1 1 3 5 11 15 15 12 11 10 9 9 9 8 7 7 7 6 5 5 6 7 7 5 4 4 2 3 2 2 4 3 1 1 2 1 3 3 2 4 2 4 4 5 4 4 4 2 2 2 2 3 5 3 2 5 6 6 8 8 11 14 13 13 15 15 14 14 13 14 15 15 14 13
5 5 5 6 9 13 15 15 14 12 8 6 4 1 1 3 7 11 12 11 11 11 11 11 10 9 9 8 8 7 5 4 5 4 5 6 4 4 3 4 3 2 2 2 4 3 1 2 2 5 6 4 4 4 4 4 4 4 4 4 5 1 4 2 2 0 1 0 3 6 5 5 8 8 10 14 13 11 15 14 14 16 15 14 15 16 16 15
4 4 4 6 9 13 14 12 9 6 3 3 3 3 5 9 12 13 13 10 8 8 9 9 9 9 7 6 6 6 5 4 5 5 2 3 3 4 1 3 2 2 2 2 2 1 2 1 4 6 6 3 3 4 4 4 2 2 3 3 4 1 3 0 1 1 1 2 2 5 5 3 6 5 5 12 14 11 13 14 13 15 16 16 16 16 18 18
3 3 4 6 9 11 11 10 8 6 5 5 5 7 10 13 14 13 10 7 6 5 7 9 8 8 7 5 4 6 7 5 4 4 2 2 3 2 0 3 2 1 0 3 4 3 1 2 5 5 4 3 3 3 2 3 3 4 4 4 4 0 3 2 3 1 3 3 1 4 2 4 7 8 6 10 13 10 11 14 13 14 15 15 17 17 18 19
2 2 3 5 8 9 8 7 7 6 7 7 9 12 13 13 10 8 4 3 4 3 3 5 5 6 6 5 5 5 6 6 7 5 2 2 3 2 2 4 3 1 1 2 2 3 1 2 4 2 2 2 3 3 2 3 3 4 4 4 3 4 6 5 6 3 2 3 4 7 3 4 6 10 8 6 8 8 9 12 12 14 16 16 18 19 18 18
1 2 3 5 7 8 6 2 3 4 6 7 11 13 12 7 4 2 0 1 2 1 1 1 2 3 3 3 4 4 3 3 6 5 3 2 3 3 2 1 2 1 1 2 1 1 1 2 3 2 1 1 2 4 3 4 3 3 2 5 3 6 8 6 5 3 2 3 4 8 5 4 1 6 6 6 6 6 8 10 12 16 19 20 21 21 20 20
1 2 3 5 7 9 6 1 2 3 4 6 11 11 7 3 0 1 1 2 1 1 0 1 1 2 3 2 2 1 1 1 4 6 4 2 2 3 1 1 2 1 1 2 1 1 1 2 3 2 1 1 3 3 4 2 3 2 3 7 5 3 5 5 4 3 3 1 1 6 5 4 4 3 4 8 7 6 8 10 13 19 22 23 23 22 23 23
1 2 4 5 7 9 6 2 4 4 2 6 10 9 4 1 2 4 2 2 1 1 1 2 3 4 4 5 6 4 4 2 2 3 4 3 3 2 1 2 3 2 3 2 1 1 2 2 3 2 1 2 1 1 5 5 1 2 4 5 5 3 0 2 2 3 3 3 3 6 4 4 5 1 4 6 5 7 11 13 15 21 24 25 24 24 24 24
2 3 4 5 7 7 5 4 6 7 4 6 9 7 3 2 4 3 1 2 0 2 2 2 3 3 3 5 7 6 4 4 2 2 4 3 3 2 1 3 4 3 4 3 2 0 1 1 1 2 1 1 1 2 4 5 1 1 4 2 3 4 3 1 1 2 3 4 7 7 6 4 5 2 4 3 4 8 12 13 15 20 24 25 26 25 24 24
3 3 4 6 8 7 6 5 7 8 6 6 8 6 2 2 3 1 2 3 1 2 2 2 2 1 1 2 3 4 3 4 3 3 3 2 3 3 3 3 3 2 2 3 3 1 1 0 0 1 1 0 2 2 1 2 2 2 3 1 1 2 1 2 1 1 1 6 9 7 9 5 4 3 6 5 5 8 9 8 10 18 24 26 26 26 26 25
3 4 4 6 7 7 6 6 7 8 7 7 8 5 0 1 1 1 2 1 2 1 1 2 0 2 2 1 2 2 2 3 4 3 1 2 2 2 2 1 1 1 1 2 2 1 1 1 1 2 1 1 1 2 1 1 2 2 1 2 0 1 1 1 2 1 3 7 5 2 6 8 6 5 5 5 2 5 7 8 11 16 23 27 27 27 27 27
4 4 4 5 6 8 7 6 7 8 7 9 9 3 1 1 1 1 1 0 1 0 1 1 2 2 2 2 2 1 1 1 3 2 1 0 1 2 1 0 1 1 2 3 2 1 1 2 2 2 2 2 2 2 1 1 1 0 1 3 2 1 1 1 3 3 5 6 1 1 2 5 8 6 4 6 3 3 0 6 16 20 24 28 28 28 29 29
5 5 5 5 6 8 7 6 8 8 8 11 8 1 1 1 1 1 1 0 1 0 2 2 1 3 2 1 1 1 0 1 2 1 0 0 1 1 1 2 2 2 1 1 1 1 1 1 1 2 2 1 2 2 1 1 2 4 3 3 3 3 3 4 5 3 5 4 1 2 0 1 6 4 3 5 4 6 8 2 20 26 27 29 29 28 28 28
6 5 6 6 7 8 8 7 9 8 10 11 5 1 1 1 1 1 2 1 0 0 2 2 1 2 3 1 0 1 0 0 1 0 1 1 2 2 1 3 3 2 0 2 1 3 3 2 1 2 1 0 0 1 1 1 2 4 4 2 2 2 3 4 3 2 3 1 1 3 1 1 4 1 3 4 6 7 8 7 18 23 25 27 27 27 27 28
6 7 7 7 8 9 8 9 10 10 13 9 2 1 1 2 2 1 2 3 1 2 2 2 1 1 1 1 0 2 0 1 1 1 2 2 2 2 1 2 2 1 1 1 1 2 3 2 0 1 1 2 1 2 1 0 2 4 3 2 3 2 0 1 1 1 1 1 1 3 3 2 2 0 2 5 6 5 6 12 18 19 22 25 25 26 27 27
7 7 8 8 9 9 9 10 11 13 14 6 1 3 2 1 0 1 1 3 3 5 4 0 1 2 2 2 1 2 0 1 1 1 2 3 2 1 2 2 1 1 2 2 1 1 1 1 1 1 1 2 2 1 1 1 1 1 2 2 3 1 2 0 2 1 2 2 3 4 4 3 0 1 2 4 4 3 4 10 16 18 21 23 23 25 26 27
7 8 8 8 9 9 10 11 12 16 14 4 2 3 1 1 1 2 1 2 3 5 5 2 2 2 3 2 2 1 1 1 1 1 1 2 1 1 3 2 3 2 2 1 1 2 1 1 2 1 0 1 1 1 4 4 1 0 1 1 3 2 2 1 2 1 1 5 4 4 6 4 2 2 1 3 4 6 6 8 13 17 20 21 21 23 25 27
8 7 7 8 9 9 10 12 16 18 11 1 3 4 1 1 1 3 2 2 2 3 3 2 1 1 2 2 2 3 2 1 3 2 1 3 2 1 3 2 2 3 2 1 1 1 1 1 2 2 1 0 1 1 3 4 3 3 3 3 1 1 1 2 3 3 4 6 5 6 8 6 5 4 2 6 10 10 9 8 10 14 18 19 20 23 24 25
8 6 5 7 9 10 11 14 18 16 7 2 4 3 1 1 2 2 1 1 0 2 2 2 1 1 1 2 2 3 2 2 4 3 2 2 2 2 2 1 1 1 1 1 0 1 1 1 1 3 2 1 1 1 2 1 2 3 3 3 1 1 2 3 1 1 3 5 5 7 7 5 5 3 3 9 13 11 11 10 9 13 19 20 21 24 25 27
10 5 4 7 11 11 13 17 16 10 4 2 2 2 0 1 1 2 1 1 1 0 1 0 1 2 1 1 1 2 2 1 2 2 1 0 0 2 3 2 1 2 2 1 0 1 0 2 1 2 3 2 0 2 2 1 1 1 2 3 2 1 1 1 1 1 2 3 4 6 7 6 3 1 3 5 8 10 11 11 10 14 20 21 22 24 26 28
11 4 4 9 12 13 17 16 9 4 3 1 1 1 1 1 2 2 2 1 2 2 1 2 1 1 2 2 2 3 3 2 2 2 2 1 1 1 1 2 2 1 2 1 1 1 1 2 2 1 1 2 2 1 1 2 1 1 2 3 3 3 1 2 4 3 2 2 3 4 8 6 2 0 3 4 1 7 12 12 11 16 22 22 22 25 26 28
12 3 4 11 14 17 19 11 2 1 2 1 2 3 1 1 3 3 2 1 2 2 2 2 2 2 1 2 1 3 4 3 3 2 2 2 1 1 1 1 2 1 0 1 0 0 0 1 2 2 1 1 2 2 3 2 0 0 1 1 1 1 3 4 5 2 1 2 2 2 7 6 1 1 3 4 5 1 14 17 13 17 22 22 22 24 26 27
12 4 6 12 17 22 17 5 1 2 1 1 3 3 2 1 2 3 2 2 1 1 1 0 1 2 1 1 2 4 4 3 4 4 2 1 2 1 0 1 0 1 1 0 1 1 1 0 2 3 1 1 2 2 1 2 1 1 3 3 1 1 2 2 3 1 1 2 2 2 7 6 1 2 4 5 8 4 10 17 16 18 21 22 23 23 25 26
10 5 6 13 21 23 13 2 3 5 2 3 3 2 2 1 2 2 3 3 2 1 1 1 1 2 0 1 2 2 2 1 3 2 1 1 1 1 1 1 0 2 2 1 1 1 0 2 2 1 2 2 2 1 1 2 1 2 3 1 2 4 2 3 1 1 1 7 8 5 7 7 1 2 3 3 5 5 4 13 17 19 21 22 23 24 25 26
9 4 4 13 23 21 9 3 2 3 4 5 2 3 3 1 2 3 2 3 2 1 2 1 1 3 3 2 2 1 0 1 0 0 1 1 1 1 1 1 0 2 3 2 3 1 0 1 2 3 4 5 4 2 2 1 1 2 2 0 1 4 5 1 1 1 5 10 9 6 9 8 3 2 2 1 2 4 2 9 15 18 19 22 23 24 26 27
8 4 2 7 16 17 11 7 3 2 4 6 2 3 6 3 3 5 3 3 3 3 3 2 3 4 3 3 2 0 1 2 2 1 1 2 2 1 0 1 1 1 3 3 3 2 0 2 2 5 6 5 4 3 2 1 1 2 2 3 3 3 5 2 1 4 7 6 6 10 13 12 8 4 4 4 5 5 5 7 13 16 19 22 24 25 26 27
7 4 6 7 6 11 11 9 8 3 4 9 4 3 8 5 2 3 3 2 4 5 3 1 3 4 4 5 4 2 1 2 2 1 1 2 2 2 0 1 2 2 1 2 2 2 1 2 2 4 5 2 3 3 2 1 3 3 2 3 5 5 6 6 7 11 7 3 9 12 9 11 16 10 8 9 8 6 8 12 16 18 19 22 23 24 25 26
9 4 13 15 6 5 8 10 13 8 5 8 5 3 8 7 4 5 4 2 4 6 4 1 4 7 7 8 5 3 2 1 1 3 1 2 2 1 0 1 2 4 3 1 1 2 1 3 2 1 3 1 2 3 2 1 4 4 3 5 5 6 9 11 13 13 8 7 14 10 3 9 14 6 5 9 11 12 14 18 18 17 19 21 23 24 25 26
13 4 10 16 9 6 9 11 16 13 7 6 4 3 8 9 8 5 3 4 2 5 6 4 6 9 9 7 5 5 5 3 3 5 4 3 3 2 1 1 2 6 5 2 0 1 1 2 1 1 3 4 2 3 3 3 4 5 7 9 8 8 10 11 13 13 10 13 19 14 9 15 14 3 2 6 11 14 14 16 18 19 21 23 24 26 27 28
20 13 11 12 6 4 7 9 13 11 7 6 5 4 7 9 10 6 4 6 5 3 7 8 7 9 9 8 7 4 6 5 3 5 7 5 3 3 3 2 4 5 5 3 1 1 1 1 2 2 2 4 2 1 3 5 5 7 9 9 9 9 10 10 12 11 10 15 19 15 15 19 15 7 7 9 12 13 13 16 21 23 24 25 26 28 29 30
28 23 18 11 4 6 7 6 9 7 5 7 7 5 6 9 11 8 3 5 5 6 10 10 7 7 5 7 9 5 3 5 4 4 8 6 4 4 4 4 7 6 4 4 3 2 2 1 1 3 0 4 2 2 4 4 4 8 12 13 13 12 10 11 12 11 12 15 15 11 13 15 9 5 10 13 15 15 16 19 22 23 25 26 28 30 31 32
33 26 22 14 5 8 8 4 6 6 5 8 9 6 5 7 12 13 5 4 4 6 9 11 11 8 3 6 11 7 5 8 8 8 8 6 6 7 6 6 9 8 6 5 3 2 3 3 1 3 2 4 4 3 3 4 5 7 9 11 14 16 14 12 11 13 15 14 11 9 13 11 3 5 9 10 11 13 16 20 22 23 26 28 29 31 31 32
Wind_Direction
346 338 329 330 330 331 334 330 325 321 320 320 324 330 331 323 281 262 289 297 298 311 336 89 104 114 117 116 115 113 112 94 78 124 122 80 52 96 121 126 139 140 142 134 124 133 153 161 163 175 178 165 158 170 163 168 181 168 134 176 269 266 216 15 87 134 125 123 129 125 112 113 112 104 105 86 79 82 79 76 82 98 105 106 113 116 119 123
347 336 330 330 332 337 340 338 336 336 335 326 329 339 333 310 272 250 290 302 307 316 21 107 119 123 121 117 115 112 104 93 94 113 97 84 84 112 122 131 141 146 132 90 99 141 166 172 168 187 190 169 173 174 163 186 173 185 238 174 244 345 40 49 94 116 120 121 108 103 110 109 119 130 125 96 75 80 80 74 83 93 96 105 112 114 117 120
346 338 335 335 337 340 339 336 337 342 347 343 340 347 344 320 268 249 301 302 316 336 77 122 128 127 125 120 117 112 104 100 84 53 82 121 113 119 134 134 140 146 101 55 119 150 208 200 167 200 204 191 221 197 169 191 195 231 264 183 179 101 71 68 93 110 121 122 106 98 103 88 92 121 124 118 91 69 72 73 85 87 95 105 109 114 115 113
344 342 341 341 343 345 343 338 340 341 345 350 350 354 358 343 301 287 305 310 338 71 115 131 134 131 128 122 118 112 110 113 66 29 143 143 169 154 155 145 150 151 91 55 113 83 269 264 190 210 213 200 198 209 177 168 207 244 302 325 134 113 72 74 96 109 117 119 110 106 102 81 83 101 119 127 99 64 70 88 106 104 107 107 110 112 110 108
342 343 344 347 349 352 352 349 350 347 344 352 354 354 356 355 340 321 323 332 10 126 134 137 139 136 130 124 121 109 102 120 58 213 173 81 187 177 181 174 174 174 105 80 81 48 286 240 271 231 247 217 157 189 178 142 200 226 347 312 129 116 83 91 106 112 114 114 109 100 93 98 103 86 87 114 96 100 121 129 132 124 118 114 112 110 107 106
340 343 346 351 353 356 357 357 358 355 352 352 354 355 351 351 337 321 342 350 84 138 143 141 142 138 131 123 111 77 55 81 54 196 185 96 61 183 192 187 193 191 118 63 68 46 32 158 263 229 243 236 162 182 151 130 266 290 133 257 110 109 105 110 109 112 116 110 98 98 109 119 108 72 63 82 85 118 142 144 137 126 121 116 111 110 108 103
340 344 347 353 357 357 359 1 2 3 2 5 12 18 21 24 23 76 120 96 117 140 144 143 143 138 130 113 88 68 69 71 67 140 190 227 359 164 182 183 190 182 124 46 36 125 113 174 232 228 234 236 187 185 124 120 290 321 146 116 96 100 99 99 100 106 111 101 99 113 114 107 102 90 81 83 87 125 137 139 134 124 120 117 113 110 107 102
343 344 349 358 1 360 2 3 8 15 17 29 41 53 55 48 50 82 112 111 117 135 144 146 145 140 131 110 88 76 66 54 130 137 197 234 355 95 143 164 164 140 107 67 221 175 174 196 221 228 233 239 204 174 113 118 239 288 127 104 103 106 97 95 100 106 105 104 113 110 92 83 106 112 93 84 103 123 128 131 128 124 122 120 118 112 107 102
345 345 349 359 4 3 3 5 14 23 29 44 51 62 65 57 60 80 101 109 116 131 143 144 142 140 129 108 94 74 52 51 137 128 290 200 41 104 102 117 136 96 61 175 203 187 188 212 227 248 282 297 280 140 125 140 220 222 144 116 125 118 105 103 104 109 107 115 120 102 84 104 115 108 84 91 127 123 126 125 121 125 124 122 120 113 107 103
344 343 350 360 6 6 5 9 21 29 39 51 47 52 62 63 70 87 100 105 121 132 140 141 139 134 107 62 43 67 65 70 119 97 58 79 97 121 109 124 131 84 82 148 169 193 210 243 263 312 318 317 345 105 126 140 56 152 145 130 132 124 122 121 112 116 113 119 124 109 107 125 120 98 89 148 146 129 128 122 123 125 121 121 119 113 108 108
342 342 352 2 7 8 10 13 26 41 49 55 49 47 54 61 71 89 104 112 129 132 137 135 129 112 72 42 49 82 85 71 87 97 85 76 98 125 129 133 116 65 142 152 178 186 208 301 242 210 351 301 266 90 96 96 70 137 147 127 130 134 137 130 121 130 119 115 127 116 115 118 70 51 127 158 155 140 136 127 129 125 119 120 116 114 114 112
341 346 355 4 8 10 18 22 39 56 61 64 58 51 52 54 60 77 99 112 127 132 133 126 113 93 74 64 73 87 99 77 64 87 93 87 93 108 129 131 104 75 153 149 200 184 92 7 202 161 1 279 151 85 82 145 131 172 166 134 146 161 161 145 143 151 131 135 142 123 113 102 48 86 131 152 156 146 140 132 136 131 126 124 117 120 118 115
343 351 358 1 8 17 31 37 55 66 69 71 63 57 60 62 65 76 98 111 123 128 126 114 104 92 78 62 70 85 97 76 59 82 93 86 79 101 135 142 116 114 150 137 184 181 117 128 183 165 276 283 104 94 87 191 190 187 194 186 163 180 197 166 159 165 143 155 162 147 146 151 92 127 141 154 156 143 138 136 144 141 137 135 126 126 124 124
347 357 2 3 9 23 42 56 72 71 69 71 71 69 69 77 80 87 106 118 124 124 117 106 96 86 83 78 76 83 85 73 63 90 99 90 76 73 123 143 141 140 146 132 168 178 129 122 166 184 248 329 114 132 103 181 194 177 197 233 186 190 209 172 165 174 155 164 176 182 274 176 134 150 154 161 158 143 139 144 154 152 146 142 132 130 128 129
358 4 7 7 11 26 52 72 79 78 76 68 71 81 81 86 93 102 113 120 122 120 115 104 89 87 89 80 80 85 78 74 75 92 104 95 85 83 98 100 144 154 141 131 162 164 129 114 152 175 156 85 130 141 130 165 204 204 189 224 215 231 220 171 166 180 168 165 187 203 290 149 155 169 167 167 167 158 149 156 173 171 162 153 144 138 132 131
9 8 10 12 20 37 60 76 85 92 88 74 71 84 92 95 99 107 115 120 122 121 115 94 82 99 95 77 82 75 61 68 81 89 100 101 100 108 108 90 115 143 130 133 151 146 129 113 123 131 128 144 149 154 154 153 203 224 197 206 202 217 233 166 167 184 168 149 188 214 170 108 157 172 171 173 182 179 157 159 180 179 174 171 165 157 143 141
15 10 13 20 30 47 67 83 92 92 90 90 89 92 99 101 100 104 107 112 116 119 114 96 93 108 92 86 87 51 43 61 78 85 91 112 119 112 104 95 104 116 111 116 129 130 121 113 128 124 157 209 214 192 166 169 206 205 204 233 206 203 207 157 174 181 156 137 172 203 140 98 139 163 171 182 189 187 171 163 171 173 179 182 175 171 163 156
18 13 19 28 39 56 76 87 94 98 97 98 98 98 101 98 98 100 100 102 99 105 112 91 91 115 78 73 71 47 55 67 76 88 87 110 123 114 111 117 118 120 114 109 118 134 150 147 156 174 205 220 236 214 193 189 212 195 197 219 228 211 189 176 185 163 143 143 165 169 131 119 135 158 176 187 189 191 184 169 168 174 180 181 180 181 178 169
19 17 26 39 53 70 94 103 106 108 104 102 102 102 99 94 93 90 91 98 84 81 92 39 39 93 94 85 83 80 78 66 66 90 92 105 115 107 110 124 142 148 139 132 132 173 194 154 153 229 205 207 226 233 230 14 355 299 207 204 223 225 187 171 160 142 147 157 174 177 159 144 153 167 173 180 187 191 184 171 173 178 180 182 186 188 185 179
24 23 36 54 70 87 106 113 115 115 112 110 106 98 93 98 97 69 67 73 68 70 88 66 67 95 104 107 103 94 80 61 54 92 104 108 102 93 102 121 167 201 192 156 137 201 256 151 203 223 221 214 223 236 259 11 360 343 315 242 225 216 80 50 89 143 163 169 183 163 141 155 168 172 173 176 185 189 180 174 182 186 187 189 188 187 189 187
32 33 46 71 87 101 111 117 122 121 116 110 98 73 10 111 152 115 82 69 64 68 77 77 86 99 95 100 104 94 88 72 58 93 116 114 95 83 122 140 184 224 233 83 86 66 352 257 226 262 339 350 278 256 329 14 358 346 336 320 285 240 88 50 73 149 191 195 161 125 130 171 177 174 179 178 186 195 186 181 186 189 190 191 189 189 191 188
41 47 62 88 102 111 113 117 124 122 109 87 76 72 86 111 132 132 112 86 68 63 70 70 72 83 86 93 96 81 81 71 46 65 121 129 78 37 147 184 224 183 148 103 79 76 187 232 1 0 337 338 354 2 21 1 353 342 321 323 317 351 101 54 29 57 277 37 145 155 167 190 180 176 179 182 190 199 195 190 188 188 188 190 189 189 190 186
47 61 83 107 119 120 114 113 123 128 108 80 109 135 120 124 129 123 115 105 79 60 77 82 70 72 71 76 82 64 62 59 28 19 74 120 39 13 147 222 251 107 82 191 183 176 186 218 352 339 325 322 324 343 2 344 334 303 297 298 290 225 130 344 286 228 329 43 131 172 196 203 168 168 189 197 199 193 192 191 188 192 197 199 196 194 193 187
51 75 103 126 136 132 120 106 102 109 107 99 122 136 132 131 129 121 111 107 96 70 82 86 74 70 64 63 72 58 63 67 27 4 32 73 18 17 28 334 338 137 191 206 230 276 109 32 337 320 329 331 303 310 329 319 288 241 226 249 273 78 73 79 123 103 25 8 152 144 233 247 172 185 209 200 198 192 188 188 185 190 197 202 204 203 199 194
59 98 119 141 152 153 142 109 85 92 105 108 119 132 135 133 132 130 115 103 110 93 86 84 66 62 58 62 78 76 78 63 31 18 32 35 29 53 35 355 357 226 200 169 243 289 72 23 337 327 355 329 290 282 244 218 270 258 215 253 251 118 86 97 130 130 43 286 211 158 236 275 173 195 205 172 185 194 188 193 197 195 193 196 200 201 199 196
88 125 139 155 164 164 160 119 69 90 102 119 131 136 138 135 144 162 253 186 126 88 148 103 54 50 38 46 83 99 107 54 32 33 43 67 63 45 24 16 42 43 24 44 27 325 68 22 356 350 356 334 262 261 247 204 236 269 296 320 311 121 114 134 161 185 202 254 204 172 214 282 198 210 194 151 180 200 190 200 208 206 202 200 199 197 195 193
146 154 157 165 168 168 168 217 224 136 104 139 149 147 143 130 205 308 308 231 194 86 121 48 43 39 31 45 62 61 125 91 41 36 43 92 70 28 22 60 73 80 356 15 37 25 14 24 20 359 279 222 230 259 304 285 215 243 329 344 345 93 131 172 193 230 247 314 192 184 211 268 263 234 154 147 174 208 206 208 211 208 207 206 203 200 197 195
186 172 175 176 177 179 180 201 203 188 164 172 168 164 164 165 308 323 311 238 265 40 54 85 97 62 59 74 60 69 100 82 26 31 53 80 66 44 20 46 68 57 16 22 187 328 6 28 23 351 263 229 225 306 326 330 134 202 320 351 1 10 28 204 207 246 275 305 262 213 197 255 259 225 105 146 183 223 218 214 212 205 203 204 202 201 200 199
207 187 183 186 186 192 204 203 197 199 197 185 182 182 188 265 304 330 292 259 316 89 53 108 131 63 65 84 59 67 85 45 18 68 60 61 66 61 64 77 91 73 34 50 95 23 3 45 16 309 291 243 358 348 330 348 68 235 308 336 21 8 5 14 241 256 280 265 254 220 173 226 263 191 142 176 219 231 223 219 212 201 199 200 198 198 197 196
219 197 187 192 193 200 215 213 201 198 199 193 183 180 195 292 303 333 247 259 91 102 18 71 157 308 289 161 59 53 70 43 25 50 63 73 72 61 75 87 87 84 61 72 86 124 215 323 213 256 302 216 326 314 301 354 331 308 320 313 34 3 28 26 304 293 293 251 251 221 179 197 269 209 168 190 217 211 210 210 198 193 195 195 194 193 191 191
223 205 202 202 202 205 209 209 201 194 199 194 175 168 243 307 280 268 241 225 91 157 338 52 349 305 315 171 84 56 80 57 12 18 88 121 93 85 106 105 75 121 205 201 150 138 206 221 164 129 164 218 300 283 204 273 320 345 294 218 257 335 67 36 253 190 232 244 251 243 190 188 233 245 183 183 188 175 185 188 184 187 188 188 189 189 188 188
224 218 214 207 209 209 204 203 197 193 195 182 167 160 337 294 221 216 213 155 66 166 124 55 348 354 20 55 71 39 73 52 6 17 48 257 156 153 134 155 148 149 229 212 160 120 198 183 113 104 181 204 214 228 200 245 248 102 241 213 185 215 157 211 218 187 228 243 231 323 239 194 236 266 165 152 105 68 5 194 184 180 179 183 185 186 186 188
231 228 218 212 212 207 206 202 191 191 187 174 168 194 324 261 246 129 126 39 324 357 72 73 39 24 15 50 83 18 39 22 354 21 332 250 166 173 54 104 139 161 227 230 128 175 222 11 60 129 164 188 197 200 163 183 190 183 196 194 183 200 223 229 222 211 231 245 200 221 266 197 260 303 85 114 76 34 8 174 180 178 176 179 182 182 184 187
236 232 221 220 212 203 206 199 188 187 179 172 179 289 56 217 236 132 139 134 317 158 71 64 132 50 26 53 98 286 188 343 330 357 235 192 161 210 187 124 136 155 319 335 283 219 240 289 223 166 125 43 107 102 134 183 225 214 206 214 226 226 243 237 228 246 242 302 333 220 186 191 231 316 67 78 69 51 36 108 159 167 170 173 175 179 183 187
235 230 223 221 209 204 204 194 189 182 173 170 209 248 191 202 187 132 147 145 150 156 93 6 182 141 34 106 68 307 133 122 325 312 216 196 181 208 182 131 158 187 156 225 274 229 229 251 155 80 1 13 47 58 52 322 259 236 204 221 268 260 300 263 206 199 172 13 311 218 239 250 220 44 85 89 77 71 78 114 137 148 159 165 169 178 184 187
230 225 223 218 210 206 200 194 187 176 170 169 272 228 226 246 124 27 116 144 150 146 136 155 185 186 218 154 96 313 332 112 310 276 205 199 214 206 91 69 26 75 125 186 299 39 223 275 354 331 21 42 45 30 348 317 308 266 179 203 278 285 78 11 258 146 117 260 245 200 243 269 276 285 167 123 109 124 128 133 140 147 156 163 170 178 183 186
223 221 221 215 211 206 198 191 180 174 173 179 262 232 176 69 14 359 71 118 128 138 143 185 187 181 203 176 159 182 157 211 215 211 190 187 235 161 123 75 6 47 85 117 122 96 133 255 295 292 332 67 97 318 278 256 243 57 206 333 323 311 69 96 268 302 210 257 249 208 241 248 212 259 173 153 182 184 184 165 152 156 163 169 176 180 183 187
213 215 222 217 210 200 192 185 175 174 174 191 258 241 146 110 23 32 73 91 117 146 177 218 178 127 201 194 152 138 133 161 164 174 215 193 236 5 117 123 18 43 70 85 122 102 111 218 285 301 316 94 99 313 271 241 195 203 271 329 2 269 278 185 217 253 247 256 260 248 254 251 241 248 181 197 206 193 186 178 166 168 172 176 180 181 185 187
197 198 226 220 203 191 184 178 171 172 181 229 235 235 119 98 60 64 78 14 44 183 207 205 146 91 200 164 120 133 151 144 151 177 233 201 238 359 66 112 52 84 178 160 133 347 101 146 262 281 295 348 41 203 202 202 217 226 286 309 134 140 264 219 205 298 255 254 263 262 259 250 249 256 209 211 206 187 178 180 183 182 179 182 182 182 185 186
182 177 235 215 193 183 175 170 169 174 198 221 213 215 140 140 124 125 170 80 47 195 234 23 122 147 150 121 130 147 136 154 191 206 251 158 94 19 37 31 65 147 198 215 260 332 85 157 195 300 310 312 219 194 183 144 164 184 217 237 209 181 251 265 269 238 234 259 264 267 268 255 235 273 303 248 200 179 179 180 184 184 182 185 184 183 185 187
174 176 239 198 185 178 167 164 168 186 215 213 98 112 182 178 134 133 181 149 46 38 33 21 36 138 135 143 195 162 144 192 229 245 251 193 122 21 40 22 18 110 168 181 223 272 211 168 194 207 243 234 192 139 28 61 93 137 200 217 220 213 215 275 257 220 188 250 250 257 271 268 219 167 325 320 161 165 173 174 178 183 183 184 186 187 187 188
172 190 219 188 182 172 162 160 151 142 221 225 108 106 128 166 138 134 164 140 48 42 51 33 10 31 110 135 138 147 150 181 195 208 249 212 79 29 130 95 18 13 113 112 68 306 60 52 265 239 200 143 136 108 53 23 332 239 231 231 29 235 221 232 248 249 173 238 267 270 268 270 249 356 345 351 352 118 168 172 173 177 181 184 186 188 189 190
181 195 189 183 179 169 163 163 145 162 248 72 106 100 101 148 131 126 165 174 137 104 67 85 66 48 40 33 79 159 170 179 183 181 207 174 87 45 239 167 71 4 347 82 88 39 13 176 228 254 269 75 99 123 61 9 340 229 223 210 166 211 214 195 229 269 45 232 237 240 254 258 251 348 352 353 342 354 162 170 170 169 177 183 185 187 189 191
180 181 179 181 178 172 173 189 171 188 197 98 107 112 99 139 147 136 179 183 158 133 128 150 92 75 76 25 48 170 181 181 198 185 157 159 121 105 171 182 122 13 21 30 34 23 332 181 175 238 276 281 324 308 307 357 347 238 240 195 184 202 129 69 238 248 265 239 233 233 252 257 272 340 340 2 338 334 155 165 169 170 176 182 186 188 189 191
158 150 166 181 181 181 198 256 191 179 160 129 130 165 144 132 182 173 151 137 133 111 117 139 110 94 92 80 53 346 322 74 241 96 88 107 101 104 173 209 227 46 53 24 359 17 173 200 167 181 221 239 258 264 242 246 247 245 249 199 206 200 182 168 322 239 239 242 236 235 248 260 311 328 265 240 267 280 225 171 173 177 180 183 186 188 189 191
169 170 146 171 187 201 232 252 220 128 146 151 127 176 174 164 178 181 155 131 157 139 108 111 127 106 93 116 117 276 280 63 65 119 168 139 120 99 236 215 167 88 61 32 18 43 29 307 235 220 232 230 219 201 175 167 215 227 214 200 199 191 191 201 243 225 241 265 258 241 242 258 276 255 222 226 213 222 233 193 183 186 187 187 188 190 191 193
183 194 173 157 188 219 237 239 215 182 152 171 169 163 173 163 120 167 179 176 168 152 120 88 154 162 168 159 149 186 207 64 58 163 206 135 104 53 264 210 216 210 125 32 19 54 117 269 276 254 251 223 156 155 115 114 229 232 245 219 203 186 180 190 217 231 241 293 267 249 228 247 260 243 209 216 203 196 219 209 196 192 190 190 190 191 193 196
193 198 185 179 179 200 212 219 204 187 159 173 169 125 161 169 163 177 184 157 159 170 165 178 217 209 189 166 157 160 156 79 261 225 192 131 138 91 122 259 229 192 163 91 7 82 130 254 280 293 280 295 140 154 130 162 237 243 254 252 226 195 188 199 223 237 232 235 254 257 182 231 256 256 197 212 201 195 207 205 199 194 192 191 191 192 195 198
197 207 183 184 191 175 177 190 184 178 178 180 174 150 168 181 189 182 131 111 179 221 199 204 221 206 192 183 165 156 166 177 220 215 179 143 167 164 151 234 203 188 174 133 155 145 150 232 183 125 295 293 219 184 172 193 249 258 242 239 237 227 217 216 229 236 231 242 255 264 268 260 259 241 145 205 204 204 203 196 195 197 196 195 194 196 199 201
201 203 172 168 184 161 156 164 164 171 185 186 195 193 176 186 190 176 142 159 176 195 193 210 213 183 181 194 190 194 201 181 177 201 177 145 165 203 196 165 144 173 190 165 143 196 163 151 116 110 302 293 271 246 222 212 237 261 256 245 235 238 244 241 241 235 228 243 254 260 268 269 263 234 201 191 186 189 187 189 196 201 201 199 199 202 204 204
205 207 191 173 165 156 154 147 151 167 192 191 195 178 173 201 191 162 161 203 181 163 186 195 174 142 149 197 208 228 187 137 105 162 170 146 146 184 189 150 136 148 183 175 146 146 159 178 73 88 267 276 300 311 272 253 262 269 269 256 230 223 230 229 229 222 212 229 246 249 251 259 261 215 199 189 180 183 188 191 198 204 206 206 205 207 208 208
204 205 199 190 173 163 166 150 155 177 191 190 190 169 169 200 174 153 166 234 194 177 190 177 148 126 124 201 209 205 144 126 103 108 128 110 99 114 110 120 139 147 161 163 144 152 168 175 154 129 187 272 299 307 310 344 318 272 258 244 221 214 223 230 235 229 218 220 231 233 240 253 252 161 189 194 187 192 197 198 204 212 213 212 214 214 214 214